This demonstration page uses our WeatherBlox Daily Observations layout. Learn more.

Left ArrowRight Arrow

Hourly Observations for August 23, 2020

Temp ( °F °C ) Dew Point ( °F °C ) Humidity (%) Winds ( mph kmh ) Pressure ( in mb ) Visibility ( mi km ) Precip ( " mm )
12:15 am 00:15 Clear 66 19 66 19 100 100 SSE 5 7 29.98 1015 10 16.0934 N/A
12:35 am 00:35 Clear 66 19 66 19 100 100 SE 3 6 29.98 1015 10 16.0934 N/A
12:55 am 00:55 Clear 66 19 66 19 100 100 SE 5 7 29.98 1015 10 16.0934 N/A
1:15 am 01:15 Clear 68 20 68 20 100 100 SE 6 9 29.98 1015 10 16.0934 N/A
1:35 am 01:35 Clear 66 19 66 19 100 100 Calm 29.99 1016 10 16.0934 N/A
1:55 am 01:55 Clear 66 19 66 19 100 100 Calm 29.99 1016 10 16.0934 N/A
2:15 am 02:15 Clear 66 19 66 19 100 100 Calm 29.99 1016 10 16.0934 N/A
2:35 am 02:35 Clear 63 17 63 17 100 100 Calm 29.99 1015 10 16.0934 N/A
2:55 am 02:55 Clear 63 17 63 17 100 100 Calm 30 1016 7 11.26538 N/A
3:15 am 03:15 Clear 63 17 63 17 100 100 SSE 3 6 30 1016 10 16.0934 N/A
3:35 am 03:35 Clear 63 17 63 17 100 100 Calm 30 1016 7 11.26538 N/A
3:55 am 03:55 Clear 61 16 61 16 100 100 Calm 30 1016 7 11.26538 N/A
4:15 am 04:15 Clear 63 17 63 17 100 100 SE 3 6 30 1016 7 11.26538 N/A
4:35 am 04:35 Clear 63 17 63 17 100 100 Calm 30 1016 7 11.26538 N/A
4:55 am 04:55 Clear 61 16 61 16 100 100 Calm 30 1016 5 8.0467 N/A
5:15 am 05:15 Clear 63 17 63 17 100 100 Calm 30 1016 2.5 4.02335 N/A
5:35 am 05:35 Clear 63 17 63 17 100 100 Calm 30.01 1016 5 8.0467 N/A
5:55 am 05:55 Mostly Cloudy 61 16 61 16 100 100 Calm 30.01 1016 1 1.60934 N/A
6:15 am 06:15 Clear 63 17 63 17 100 100 SSE 3 6 30.01 1016 3 4.82802 N/A
6:35 am 06:35 Clear 63 17 63 17 100 100 SSE 3 6 30.01 1016 3 4.82802 N/A
6:55 am 06:55 Clear 63 17 63 17 100 100 SSE 5 7 30.01 1016 3 4.82802 N/A
7:15 am 07:15 Mostly Cloudy 63 17 63 17 100 100 SSE 3 6 30.02 1017 1.75 2.816345 N/A
7:35 am 07:35 Mostly Cloudy 64 18 64 18 100 100 Calm 30.02 1017 1.75 2.816345 N/A
7:55 am 07:55 Sunny 64 18 64 18 100 100 Calm 30.02 1017 2.5 4.02335 N/A
8:15 am 08:15 Sunny 64 18 64 18 100 100 Calm 30.03 1017 2 3.21868 N/A
8:35 am 08:35 Sunny 64 18 64 18 100 100 Calm 30.03 1017 2 3.21868 N/A
8:55 am 08:55 Sunny 66 19 66 19 100 100 S 5 7 30.04 1017 3 4.82802 N/A
9:15 am 09:15 Sunny 68 20 68 20 100 100 Calm 30.04 1017 5 8.0467 N/A
9:35 am 09:35 Sunny 72 22 72 22 100 100 Calm 30.03 1017 10 16.0934 N/A
9:55 am 09:55 Sunny 73 23 73 23 100 100 Calm 30.03 1017 10 16.0934 N/A
10:15 am 10:15 Sunny 75 24 75 24 100 100 Calm 30.03 1017 10 16.0934 N/A
10:35 am 10:35 Sunny 77 25 75 24 94 94 Calm 30.03 1017 10 16.0934 N/A
10:55 am 10:55 Sunny 77 25 75 24 94 94 Calm 30.03 1017 10 16.0934 N/A
11:15 am 11:15 Sunny 79 26 75 24 89 89 Calm 30.03 1017 10 16.0934 N/A
11:35 am 11:35 Sunny 81 27 75 24 84 84 W 3 6 30.03 1017 10 16.0934 N/A
11:55 am 11:55 Sunny 81 27 73 23 79 79 Calm 30.03 1017 10 16.0934 N/A
12:15 pm 12:15 Partly Cloudy 81 27 73 23 79 79 S 3 6 30.03 1017 10 16.0934 N/A
12:35 pm 12:35 Partly Cloudy 82 28 73 23 74 74 Calm 30.02 1017 10 16.0934 N/A
12:55 pm 12:55 Partly Cloudy 81 27 73 23 79 79 Calm 30.03 1017 10 16.0934 N/A
1:15 pm 13:15 Mostly Cloudy 82 28 73 23 74 74 Calm 30.01 1016 10 16.0934 N/A
1:35 pm 13:35 Cloudy 81 27 73 23 79 79 Calm 30.02 1016 10 16.0934 N/A
1:55 pm 13:55 Cloudy 82 28 72 22 70 70 Calm 30.01 1016 10 16.0934 N/A
2:15 pm 14:15 Mostly Cloudy 81 27 73 23 79 79 Calm 30.01 1016 10 16.0934 N/A
2:35 pm 14:35 Mostly Cloudy 82 28 73 23 74 74 S 6 9 30 1016 10 16.0934 N/A
2:55 pm 14:55 Cloudy 81 27 73 23 79 79 Calm 30 1016 10 16.0934 N/A
3:15 pm 15:15 Cloudy 81 27 75 24 84 84 Calm 30 1016 10 16.0934 N/A
3:35 pm 15:35 Cloudy 82 28 73 23 74 74 Calm 29.99 1016 10 16.0934 N/A
3:55 pm 15:55 Cloudy 81 27 77 25 89 89 Calm 29.99 1015 10 16.0934 N/A
4:15 pm 16:15 Cloudy 82 28 72 22 70 70 Calm 29.98 1015 10 16.0934 N/A
4:35 pm 16:35 Mostly Cloudy 82 28 73 23 74 74 Calm 29.97 1015 10 16.0934 N/A
4:55 pm 16:55 Mostly Cloudy 84 29 73 23 70 70 WSW 6 9 29.97 1015 10 16.0934 N/A
5:15 pm 17:15 Mostly Cloudy 84 29 73 23 70 70 WSW 3 6 29.97 1015 10 16.0934 N/A
5:35 pm 17:35 Mostly Cloudy 84 29 72 22 66 66 SW 6 9 29.97 1015 10 16.0934 N/A
5:55 pm 17:55 Partly Cloudy 84 29 72 22 66 66 SSW 5 7 29.97 1015 10 16.0934 N/A
6:15 pm 18:15 Sunny 82 28 72 22 70 70 SSW 8 13 29.97 1015 10 16.0934 N/A
6:35 pm 18:35 Partly Cloudy 82 28 72 22 70 70 SSW 6 9 29.97 1015 10 16.0934 N/A
6:55 pm 18:55 Sunny 82 28 72 22 70 70 SSW 6 9 29.97 1015 10 16.0934 N/A
7:15 pm 19:15 Sunny 81 27 72 22 74 74 Calm 29.98 1015 10 16.0934 N/A
7:35 pm 19:35 Partly Cloudy 79 26 77 25 94 94 S 6 9 29.98 1015 10 16.0934 N/A
7:55 pm 19:55 Partly Cloudy 79 26 77 25 94 94 SSE 7 11 29.98 1015 10 16.0934 N/A
8:15 pm 20:15 Sunny 77 25 77 25 100 100 S 5 7 29.99 1016 10 16.0934 N/A
8:35 pm 20:35 Clear 73 23 73 23 100 100 S 3 6 30 1016 10 16.0934 N/A
8:55 pm 20:55 Clear 73 23 73 23 100 100 S 3 6 30.01 1016 10 16.0934 N/A
9:15 pm 21:15 Clear 73 23 73 23 100 100 S 3 6 30.01 1016 10 16.0934 N/A
9:35 pm 21:35 Clear 72 22 72 22 100 100 SSE 3 6 30.02 1017 10 16.0934 N/A
9:55 pm 21:55 Clear 72 22 72 22 100 100 S 5 7 30.03 1017 10 16.0934 N/A
10:15 pm 22:15 Clear 72 22 72 22 100 100 S 5 7 30.03 1017 10 16.0934 N/A
10:35 pm 22:35 Clear 72 22 72 22 100 100 S 6 9 30.02 1017 10 16.0934 N/A
10:55 pm 22:55 Clear 72 22 72 22 100 100 S 5 7 30.03 1017 10 16.0934 N/A
11:15 pm 23:15 Clear 70 21 70 21 100 100 S 3 6 30.04 1017 10 16.0934 N/A
11:35 pm 23:35 Clear 70 21 70 21 100 100 S 6 9 30.04 1017 10 16.0934 N/A
11:55 pm 23:55 Clear 70 21 70 21 100 100 SSE 5 7 30.04 1017 10 16.0934 N/A

Powered by AerisWeather